Regional Weather Roundup
Issued by NWS

Home | Current Version | Previous Version | Graphics & Text | Print | Product List | Glossary Off
Versions: 1 2 3 4 5 6 7 8 9 10 11 12 13 14 15 16 17 18 19 20 21 22 23 24 25 26 27 28 29 30 31 32 33 34 35 36 37 38 39 40 41 42 43 44 45 46 47 48 49 50

000
ASUS43 KFSD 020802
RWRSD

WEATHER ROUNDUP FOR SOUTH DAKOTA
NATIONAL WEATHER SERVICE SIOUX FALLS SD
300 AM CDT SUN AUG 02 2015

NOTE: "FAIR" INDICATES FEW OR NO CLOUDS BELOW 12,000 FEET WITH NO
SIGNIFICANT WEATHER AND/OR OBSTRUCTIONS TO VISIBILITY.


SDZ001>005-009-010-012>017-020900-
NORTHWEST AND NORTH CENTRAL SOUTH DAKOTA

CITY           SKY/WX    TMP DP  RH WIND       PRES   REMARKS
BUFFALO          N/A     69  35  28 NW7       29.84S
FAITH            N/A     72  56  57 W10       29.83F
MOBRIDGE       CLEAR     66  51  58 NW8       29.74F
$$

SDZ012>016-024>037-041>051-057-063-072>074-020900-
SOUTHWEST AND SOUTH CENTRAL SOUTH DAKOTA

CITY           SKY/WX    TMP DP  RH WIND       PRES   REMARKS
RAPID CTY ARPT CLEAR     66  55  67 NW8       29.91S
PIERRE           N/A     73  60  63 W14       29.77F
CUSTER         CLEAR     65  56  72 W7        30.10F
ELLSWORTH AFB  CLEAR     65  53  66 W7        29.90F
PHILIP         CLEAR     67  61  81 W10       29.83S
PINE RIDGE     CLEAR     64  56  75 SW6       29.95F
WINNER         FAIR      72  60  66 SW12      29.82F
$$

SDZ004>011-016>023-039-040-020900-
NORTHEAST SOUTH DAKOTA

CITY           SKY/WX    TMP DP  RH WIND       PRES   REMARKS
ABERDEEN       CLEAR     60  57  89 S7        29.70F
WATERTOWN      CLEAR     68  63  84 SW12      29.75R
BROOKINGS      CLEAR     66  59  77 S13       29.77F
SISSETON         N/A     66  63  90 W7        29.67R
$$

SDZ017-020-022-023-036>040-048>070-020900-
SOUTHEAST SOUTH DAKOTA

CITY           SKY/WX    TMP DP  RH WIND       PRES   REMARKS
SIOUX FALLS    CLEAR     70  61  73 SW8       29.78F
HURON          CLEAR     69  61  75 SW7       29.73F
MITCHELL       CLEAR     69  61  75 SW9       29.77F
YANKTON        CLEAR     70  61  73 S8        29.80F
$$

ABBREVIATIONS USED IN REMARKS
   TC - TEMPERATURE IN CELSIUS
  WCI - WIND CHILL INDEX
   HX - HEAT INDEX
  VSB - VISIBILITY



USA.gov is the U.S. government's official web portal to all federal, state and local government web resources and services.